QPF
0.03 0.03 0.04 0.04 0.06 0.07 0.09 0.11 0.12 0.10 0.08 0.07 0.05 0.06 0.09 0.13 0.15 0.10 0.09 0.09 0.10 0.10 0.08 0.07 0.07 0.07 0.07 0.07 0.08 0.07 0.06 0.05 0.05 0.05 0.06 0.07 0.08 0.10
0.03 0.03 0.04 0.05 0.07 0.08 0.08 0.11 0.15 0.14 0.13 0.09 0.07 0.08 0.10 0.12 0.16 0.14 0.11 0.09 0.07 0.07 0.06 0.05 0.05 0.05 0.05 0.05 0.05 0.04 0.04 0.04 0.04 0.04 0.04 0.04 0.03 0.03
0.03 0.03 0.04 0.05 0.07 0.08 0.09 0.11 0.14 0.16 0.15 0.12 0.12 0.12 0.13 0.15 0.12 0.10 0.09 0.07 0.06 0.05 0.04 0.04 0.04 0.04 0.04 0.04 0.03 0.03 0.02 0.02 0.02 0.02 0.02 0.02 0.02 0.02
0.04 0.04 0.04 0.05 0.07 0.08 0.09 0.12 0.13 0.15 0.16 0.16 0.15 0.15 0.14 0.13 0.11 0.08 0.06 0.05 0.06 0.05 0.04 0.03 0.03 0.03 0.02 0.02 0.03 0.03 0.02 0.02 0.01 0.01 0.01 0.01 0.01 0.01
0.06 0.07 0.07 0.07 0.08 0.08 0.09 0.11 0.13 0.15 0.18 0.17 0.16 0.14 0.12 0.11 0.09 0.07 0.06 0.04 0.04 0.05 0.04 0.02 0.02 0.01 0.01 0.01 0.01 0.01 0.01 0.01 0.01 0.00 0.00 0.00 0.00 0.00
0.08 0.09 0.08 0.09 0.09 0.10 0.10 0.11 0.12 0.14 0.17 0.18 0.17 0.15 0.13 0.11 0.10 0.07 0.06 0.05 0.04 0.03 0.02 0.02 0.02 0.01 0.00 0.00 0.00 0.00 0.00 0.00 0.00 0.00 0.00 0.00 0.00 0.00
0.09 0.09 0.09 0.10 0.12 0.10 0.10 0.11 0.12 0.15 0.17 0.18 0.17 0.17 0.15 0.13 0.10 0.07 0.05 0.03 0.02 0.02 0.02 0.02 0.02 0.01 0.00 0.00 0.00 0.00 0.00 0.00 0.00 0.00 0.00 0.00 0.00 0.00
0.12 0.13 0.11 0.12 0.13 0.14 0.14 0.14 0.15 0.13 0.14 0.16 0.17 0.17 0.16 0.11 0.07 0.05 0.04 0.02 0.02 0.02 0.01 0.01 0.01 0.01 0.01 0.00 0.00 0.00 0.00 0.00 0.00 0.00 0.00 0.00 0.00 0.00
0.11 0.12 0.12 0.15 0.16 0.14 0.17 0.19 0.18 0.18 0.16 0.14 0.15 0.14 0.11 0.09 0.06 0.04 0.03 0.02 0.01 0.02 0.01 0.01 0.01 0.01 0.00 0.00 0.00 0.00 0.00 0.00 0.00 0.00 0.00 0.00 0.00 0.00
0.09 0.10 0.11 0.16 0.17 0.17 0.16 0.17 0.16 0.17 0.15 0.11 0.08 0.07 0.06 0.05 0.05 0.04 0.02 0.01 0.01 0.01 0.01 0.01 0.01 0.01 0.00 0.00 0.00 0.00 0.00 0.00 0.00 0.00 0.00 0.00 0.00 0.00
0.06 0.08 0.09 0.14 0.19 0.19 0.15 0.12 0.12 0.12 0.10 0.08 0.06 0.05 0.04 0.02 0.02 0.02 0.01 0.01 0.01 0.00 0.00 0.00 0.00 0.00 0.00 0.00 0.00 0.00 0.00 0.00 0.00 0.00 0.00 0.00 0.00 0.00
0.08 0.08 0.10 0.11 0.13 0.11 0.10 0.09 0.08 0.06 0.04 0.04 0.03 0.02 0.01 0.01 0.00 0.01 0.00 0.00 0.00 0.00 0.00 0.00 0.00 0.00 0.00 0.00 0.00 0.00 0.00 0.00 0.00 0.00 0.00 0.00 0.00 0.00
0.09 0.10 0.10 0.08 0.07 0.07 0.06 0.07 0.06 0.04 0.02 0.02 0.01 0.01 0.01 0.01 0.00 0.00 0.00 0.00 0.00 0.00 0.00 0.00 0.00 0.00 0.00 0.00 0.00 0.00 0.00 0.00 0.00 0.00 0.00 0.00 0.00 0.00
0.10 0.08 0.07 0.06 0.05 0.05 0.04 0.04 0.03 0.02 0.01 0.00 0.00 0.00 0.00 0.00 0.00 0.00 0.00 0.00 0.00 0.00 0.00 0.00 0.00 0.00 0.00 0.00 0.00 0.00 0.00 0.00 0.00 0.00 0.01 0.01 0.00 0.00
0.06 0.06 0.05 0.03 0.03 0.03 0.02 0.01 0.01 0.00 0.00 0.00 0.00 0.00 0.00 0.00 0.00 0.00 0.00 0.00 0.00 0.00 0.00 0.00 0.00 0.00 0.00 0.00 0.00 0.00 0.00 0.00 0.01 0.02 0.02 0.02 0.01 0.01
0.04 0.04 0.04 0.02 0.01 0.01 0.01 0.00 0.00 0.00 0.00 0.00 0.00 0.00 0.00 0.00 0.00 0.00 0.00 0.00 0.00 0.00 0.00 0.00 0.00 0.00 0.00 0.00 0.01 0.01 0.01 0.01 0.01 0.02 0.03 0.03 0.03 0.03
0.02 0.02 0.02 0.01 0.00 0.00 0.00 0.00 0.00 0.00 0.00 0.00 0.00 0.00 0.00 0.00 0.00 0.00 0.00 0.00 0.00 0.00 0.00 0.00 0.00 0.00 0.00 0.00 0.01 0.01 0.00 0.00 0.01 0.02 0.02 0.04 0.04 0.04
0.01 0.01 0.01 0.00 0.00 0.00 0.00 0.00 0.00 0.00 0.00 0.00 0.00 0.00 0.00 0.00 0.00 0.00 0.00 0.00 0.00 0.00 0.00 0.00 0.00 0.00 0.00 0.00 0.00 0.00 0.00 0.00 0.00 0.01 0.02 0.02 0.03 0.03
0.01 0.01 0.00 0.00 0.00 0.00 0.00 0.00 0.00 0.00 0.00 0.00 0.00 0.00 0.00 0.00 0.00 0.00 0.00 0.00 0.00 0.00 0.00 0.00 0.00 0.00 0.00 0.00 0.00 0.00 0.00 0.00 0.00 0.00 0.01 0.02 0.02 0.02
0.01 0.00 0.00 0.00 0.00 0.00 0.00 0.00 0.00 0.00 0.00 0.00 0.00 0.00 0.00 0.00 0.00 0.00 0.00 0.00 0.00 0.00 0.00 0.00 0.00 0.00 0.00 0.00 0.00 0.00 0.00 0.00 0.00 0.00 0.01 0.01 0.02 0.02
0.01 0.00 0.00 0.00 0.00 0.00 0.00 0.00 0.00 0.00 0.00 0.00 0.00 0.00 0.00 0.00 0.00 0.00 0.00 0.00 0.00 0.00 0.00 0.00 0.00 0.00 0.00 0.00 0.00 0.00 0.00 0.00 0.00 0.00 0.01 0.01 0.02 0.02
0.01 0.00 0.00 0.00 0.00 0.00 0.00 0.00 0.00 0.00 0.00 0.00 0.00 0.00 0.00 0.00 0.00 0.00 0.00 0.00 0.00 0.00 0.00 0.00 0.00 0.00 0.00 0.00 0.00 0.00 0.00 0.00 0.00 0.00 0.01 0.02 0.02 0.03
0.01 0.00 0.00 0.00 0.00 0.00 0.00 0.00 0.00 0.00 0.00 0.00 0.00 0.00 0.00 0.00 0.00 0.00 0.00 0.00 0.00 0.00 0.00 0.00 0.00 0.00 0.00 0.00 0.00 0.00 0.00 0.00 0.00 0.01 0.01 0.02 0.02 0.02
MSLP
1006.93 1006.28 1005.62 1004.98 1004.39 1003.89 1003.50 1003.25 1003.12 1003.11 1003.21 1003.38 1003.60 1003.87 1004.15 1004.47 1004.82 1005.22 1005.68 1006.19 1006.76 1007.35 1007.94 1008.50 1008.99 1009.40 1009.72 1009.95 1010.12 1010.27 1010.43 1010.63 1010.89 1011.22 1011.59 1012.01 1012.42 1012.81
1006.08 1005.35 1004.61 1003.91 1003.29 1002.80 1002.48 1002.33 1002.35 1002.52 1002.81 1003.17 1003.58 1004.00 1004.42 1004.83 1005.24 1005.66 1006.11 1006.60 1007.13 1007.69 1008.24 1008.77 1009.25 1009.65 1009.96 1010.19 1010.37 1010.51 1010.66 1010.84 1011.08 1011.37 1011.71 1012.08 1012.45 1012.79
1005.05 1004.22 1003.39 1002.62 1001.98 1001.51 1001.25 1001.22 1001.40 1001.77 1002.28 1002.88 1003.51 1004.13 1004.71 1005.24 1005.73 1006.18 1006.63 1007.09 1007.58 1008.08 1008.58 1009.07 1009.52 1009.91 1010.23 1010.48 1010.68 1010.84 1010.99 1011.17 1011.38 1011.63 1011.92 1012.24 1012.54 1012.82
1003.99 1003.07 1002.16 1001.32 1000.64 1000.19 999.99 1000.07 1000.42 1000.99 1001.72 1002.55 1003.41 1004.23 1004.99 1005.65 1006.22 1006.71 1007.16 1007.59 1008.01 1008.45 1008.90 1009.34 1009.77 1010.15 1010.49 1010.76 1010.99 1011.18 1011.36 1011.53 1011.73 1011.94 1012.18 1012.42 1012.65 1012.85
1003.10 1002.10 1001.12 1000.23 999.52 999.07 998.93 999.10 999.57 1000.31 1001.23 1002.26 1003.31 1004.32 1005.23 1006.00 1006.65 1007.17 1007.61 1008.00 1008.37 1008.75 1009.13 1009.53 1009.94 1010.32 1010.68 1010.99 1011.26 1011.50 1011.70 1011.88 1012.06 1012.24 1012.41 1012.57 1012.72 1012.83
1002.54 1001.50 1000.47 999.55 998.83 998.38 998.27 998.50 999.05 999.89 1000.94 1002.10 1003.29 1004.43 1005.44 1006.29 1006.98 1007.52 1007.94 1008.29 1008.61 1008.92 1009.25 1009.61 1010.00 1010.39 1010.77 1011.13 1011.45 1011.73 1011.96 1012.16 1012.32 1012.46 1012.57 1012.65 1012.71 1012.74
1002.40 1001.36 1000.34 999.43 998.71 998.27 998.16 998.41 999.00 999.87 1000.96 1002.17 1003.41 1004.59 1005.64 1006.51 1007.21 1007.74 1008.13 1008.43 1008.69 1008.96 1009.25 1009.58 1009.95 1010.35 1010.77 1011.17 1011.53 1011.85 1012.12 1012.33 1012.48 1012.58 1012.63 1012.64 1012.62 1012.57
1002.65 1001.70 1000.74 999.88 999.19 998.78 998.67 998.90 999.46 1000.29 1001.34 1002.51 1003.71 1004.84 1005.85 1006.69 1007.35 1007.84 1008.19 1008.44 1008.66 1008.88 1009.14 1009.45 1009.82 1010.23 1010.67 1011.10 1011.51 1011.86 1012.15 1012.37 1012.51 1012.58 1012.59 1012.54 1012.45 1012.33
1003.22 1002.40 1001.57 1000.82 1000.20 999.82 999.71 999.90 1000.38 1001.12 1002.05 1003.10 1004.17 1005.20 1006.10 1006.85 1007.44 1007.86 1008.15 1008.36 1008.54 1008.73 1008.97 1009.27 1009.64 1010.06 1010.52 1010.97 1011.40 1011.78 1012.08 1012.29 1012.43 1012.47 1012.44 1012.35 1012.21 1012.04
1003.93 1003.31 1002.67 1002.06 1001.55 1001.23 1001.12 1001.26 1001.64 1002.24 1003.00 1003.88 1004.77 1005.63 1006.39 1007.02 1007.50 1007.85 1008.09 1008.27 1008.42 1008.60 1008.82 1009.12 1009.49 1009.91 1010.36 1010.82 1011.25 1011.62 1011.92 1012.13 1012.24 1012.27 1012.22 1012.10 1011.93 1011.74
1004.61 1004.22 1003.79 1003.36 1003.00 1002.74 1002.65 1002.74 1003.02 1003.48 1004.06 1004.74 1005.44 1006.11 1006.71 1007.21 1007.59 1007.87 1008.06 1008.22 1008.36 1008.54 1008.76 1009.06 1009.41 1009.82 1010.26 1010.69 1011.10 1011.45 1011.72 1011.91 1012.00 1012.01 1011.94 1011.82 1011.64 1011.44
1005.13 1004.98 1004.77 1004.53 1004.30 1004.14 1004.08 1004.14 1004.33 1004.66 1005.08 1005.58 1006.09 1006.59 1007.05 1007.42 1007.72 1007.95 1008.12 1008.27 1008.42 1008.60 1008.83 1009.12 1009.46 1009.84 1010.24 1010.63 1010.99 1011.29 1011.52 1011.67 1011.74 1011.73 1011.66 1011.53 1011.36 1011.17
1005.43 1005.48 1005.46 1005.39 1005.30 1005.23 1005.22 1005.27 1005.41 1005.64 1005.94 1006.29 1006.67 1007.04 1007.38 1007.67 1007.92 1008.12 1008.29 1008.44 1008.61 1008.81 1009.05 1009.33 1009.64 1009.98 1010.33 1010.66 1010.95 1011.18 1011.35 1011.45 1011.49 1011.46 1011.38 1011.26 1011.11 1010.94
1005.49 1005.69 1005.82 1005.89 1005.92 1005.94 1005.97 1006.04 1006.16 1006.34 1006.57 1006.84 1007.12 1007.42 1007.69 1007.94 1008.17 1008.37 1008.55 1008.74 1008.93 1009.15 1009.39 1009.65 1009.94 1010.22 1010.50 1010.76 1010.97 1011.13 1011.23 1011.28 1011.28 1011.24 1011.15 1011.05 1010.92 1010.77
1005.36 1005.65 1005.87 1006.03 1006.15 1006.24 1006.33 1006.44 1006.57 1006.75 1006.96 1007.20 1007.45 1007.72 1007.97 1008.22 1008.46 1008.68 1008.89 1009.11 1009.33 1009.56 1009.80 1010.05 1010.30 1010.53 1010.74 1010.92 1011.05 1011.13 1011.17 1011.17 1011.14 1011.08 1011.00 1010.90 1010.80 1010.68
1005.09 1005.41 1005.67 1005.88 1006.05 1006.20 1006.35 1006.51 1006.69 1006.90 1007.14 1007.40 1007.67 1007.95 1008.22 1008.50 1008.76 1009.01 1009.26 1009.50 1009.75 1009.99 1010.23 1010.46 1010.67 1010.85 1011.00 1011.10 1011.17 1011.19 1011.18 1011.14 1011.08 1011.01 1010.93 1010.85 1010.76 1010.66
1004.74 1005.04 1005.30 1005.52 1005.73 1005.93 1006.13 1006.36 1006.61 1006.88 1007.17 1007.48 1007.81 1008.13 1008.44 1008.75 1009.04 1009.33 1009.60 1009.87 1010.12 1010.37 1010.60 1010.80 1010.98 1011.12 1011.22 1011.28 1011.30 1011.28 1011.23 1011.17 1011.09 1011.02 1010.95 1010.88 1010.80 1010.72
1004.32 1004.59 1004.82 1005.05 1005.28 1005.53 1005.80 1006.09 1006.42 1006.77 1007.14 1007.52 1007.90 1008.27 1008.62 1008.96 1009.28 1009.58 1009.87 1010.14 1010.40 1010.64 1010.86 1011.05 1011.20 1011.32 1011.39 1011.42 1011.42 1011.38 1011.32 1011.25 1011.17 1011.10 1011.03 1010.97 1010.90 1010.81
1003.85 1004.09 1004.31 1004.55 1004.81 1005.10 1005.44 1005.81 1006.22 1006.65 1007.10 1007.55 1007.98 1008.39 1008.77 1009.12 1009.45 1009.75 1010.03 1010.30 1010.55 1010.77 1010.98 1011.16 1011.31 1011.41 1011.48 1011.51 1011.50 1011.47 1011.41 1011.35 1011.28 1011.21 1011.15 1011.08 1011.01 1010.91
1003.34 1003.57 1003.80 1004.06 1004.36 1004.71 1005.12 1005.57 1006.06 1006.57 1007.08 1007.58 1008.05 1008.49 1008.88 1009.23 1009.54 1009.83 1010.09 1010.33 1010.56 1010.77 1010.97 1011.15 1011.29 1011.41 1011.49 1011.53 1011.53 1011.52 1011.48 1011.42 1011.37 1011.31 1011.24 1011.17 1011.07 1010.95
1002.79 1003.04 1003.30 1003.61 1003.97 1004.39 1004.88 1005.40 1005.97 1006.54 1007.10 1007.63 1008.12 1008.55 1008.93 1009.26 1009.54 1009.80 1010.03 1010.25 1010.45 1010.66 1010.85 1011.02 1011.18 1011.31 1011.41 1011.47 1011.50 1011.51 1011.49 1011.45 1011.40 1011.34 1011.26 1011.17 1011.06 1010.91
1002.24 1002.53 1002.86 1003.23 1003.66 1004.15 1004.71 1005.30 1005.92 1006.53 1007.12 1007.66 1008.15 1008.56 1008.91 1009.21 1009.45 1009.67 1009.87 1010.06 1010.25 1010.44 1010.63 1010.82 1010.99 1011.14 1011.26 1011.35 1011.40 1011.43 1011.42 1011.39 1011.35 1011.28 1011.19 1011.08 1010.94 1010.76
1001.73 1002.08 1002.47 1002.91 1003.42 1003.98 1004.60 1005.24 1005.90 1006.53 1007.12 1007.66 1008.12 1008.50 1008.81 1009.06 1009.27 1009.45 1009.62 1009.79 1009.97 1010.16 1010.36 1010.55 1010.74 1010.91 1011.05 1011.16 1011.24 1011.27 1011.28 1011.25 1011.19 1011.11 1011.01 1010.87 1010.71 1010.51
Thickness
5690 5690 5690 5694 5696 5699 5702 5702 5698 5697 5700 5703 5704 5707 5709 5709 5708 5709 5708 5705 5705 5704 5703 5703 5704 5704 5704 5705 5705 5705 5706 5706 5706 5707 5708 5709 5709 5710
5684 5684 5685 5688 5690 5692 5694 5696 5696 5694 5692 5695 5696 5698 5699 5700 5697 5698 5697 5695 5694 5694 5694 5694 5694 5694 5695 5695 5695 5695 5696 5696 5697 5697 5698 5700 5701 5702
5679 5680 5681 5681 5683 5686 5688 5689 5690 5688 5684 5684 5685 5686 5686 5687 5686 5686 5685 5685 5683 5683 5683 5683 5683 5683 5684 5684 5684 5684 5685 5686 5686 5687 5688 5689 5691 5693
5673 5674 5675 5676 5676 5678 5680 5681 5682 5682 5679 5674 5672 5673 5673 5675 5675 5675 5675 5675 5673 5671 5671 5672 5672 5672 5672 5673 5673 5674 5675 5675 5676 5677 5678 5679 5681 5682
5666 5667 5669 5669 5669 5671 5671 5673 5673 5673 5671 5667 5662 5661 5661 5662 5662 5663 5663 5662 5662 5660 5660 5660 5661 5661 5661 5662 5662 5663 5664 5665 5665 5667 5667 5669 5670 5672
5658 5660 5661 5662 5662 5664 5664 5664 5664 5662 5659 5657 5653 5651 5651 5651 5652 5651 5650 5650 5652 5653 5652 5651 5650 5650 5650 5651 5652 5652 5653 5654 5655 5657 5658 5660 5661 5663
5650 5651 5652 5652 5653 5655 5657 5656 5655 5652 5649 5647 5644 5643 5641 5641 5641 5643 5642 5642 5642 5645 5646 5646 5645 5645 5643 5641 5641 5641 5643 5644 5645 5647 5649 5651 5653 5655
5641 5642 5642 5642 5642 5643 5644 5645 5645 5644 5641 5639 5636 5634 5632 5633 5634 5635 5635 5635 5634 5637 5640 5639 5640 5639 5638 5636 5632 5633 5634 5636 5637 5639 5641 5643 5644 5646
5631 5631 5632 5632 5633 5634 5633 5633 5632 5632 5633 5632 5629 5627 5625 5626 5627 5628 5628 5629 5628 5629 5632 5631 5632 5631 5630 5625 5625 5626 5627 5629 5630 5631 5633 5635 5637 5639
5621 5621 5621 5622 5622 5624 5625 5623 5621 5619 5621 5622 5620 5618 5618 5619 5620 5620 5619 5619 5619 5621 5625 5625 5625 5625 5625 5622 5619 5620 5621 5622 5623 5624 5625 5627 5628 5630
5612 5612 5612 5612 5609 5612 5614 5611 5609 5606 5606 5607 5607 5606 5606 5609 5611 5614 5614 5615 5614 5615 5618 5620 5620 5621 5621 5621 5618 5617 5617 5617 5617 5617 5617 5618 5619 5622
5603 5602 5601 5601 5599 5601 5604 5603 5601 5600 5599 5598 5597 5598 5600 5601 5604 5608 5611 5612 5611 5610 5609 5614 5616 5618 5618 5618 5618 5617 5615 5613 5612 5611 5610 5609 5609 5612
5597 5596 5593 5590 5591 5592 5595 5596 5594 5595 5595 5595 5595 5595 5595 5597 5600 5601 5604 5608 5608 5607 5607 5609 5612 5614 5615 5613 5612 5612 5611 5610 5608 5606 5604 5601 5599 5598
5591 5591 5586 5581 5582 5584 5586 5584 5586 5590 5592 5592 5592 5592 5592 5592 5593 5594 5595 5597 5598 5600 5600 5603 5606 5606 5608 5608 5606 5605 5604 5602 5600 5599 5597 5593 5592 5587
5584 5580 5576 5573 5573 5576 5575 5578 5581 5587 5589 5589 5588 5588 5588 5587 5587 5588 5589 5590 5592 5594 5595 5596 5600 5600 5601 5600 5599 5598 5597 5596 5593 5590 5588 5586 5583 5580
5572 5568 5566 5567 5571 5570 5571 5575 5582 5585 5587 5586 5585 5585 5585 5585 5588 5589 5590 5591 5592 5591 5589 5590 5590 5592 5593 5592 5592 5590 5589 5587 5584 5582 5579 5577 5574 5570
5568 5568 5569 5570 5572 5573 5575 5577 5579 5580 5582 5583 5583 5583 5584 5585 5586 5588 5589 5591 5591 5589 5588 5586 5586 5586 5584 5585 5584 5583 5582 5580 5577 5573 5571 5570 5566 5562
5566 5570 5572 5574 5575 5576 5576 5576 5578 5579 5580 5581 5582 5583 5583 5584 5584 5585 5587 5588 5587 5586 5585 5584 5584 5584 5583 5578 5571 5574 5573 5571 5569 5566 5564 5562 5558 5554
5566 5570 5573 5575 5577 5577 5578 5578 5578 5579 5579 5580 5581 5581 5582 5582 5582 5583 5583 5583 5582 5581 5580 5579 5580 5580 5579 5576 5567 5561 5562 5561 5561 5559 5556 5554 5551 5547
5568 5571 5573 5576 5577 5578 5579 5579 5578 5577 5577 5578 5578 5579 5580 5580 5580 5580 5579 5578 5577 5576 5575 5573 5571 5569 5568 5566 5564 5560 5552 5553 5551 5549 5548 5547 5545 5540
5570 5572 5574 5576 5577 5578 5579 5578 5577 5577 5577 5577 5577 5576 5578 5578 5577 5577 5574 5563 5570 5571 5569 5566 5559 5554 5558 5560 5560 5556 5551 5543 5539 5538 5538 5539 5538 5536
5572 5574 5576 5577 5577 5577 5577 5577 5577 5576 5575 5576 5576 5575 5575 5575 5573 5571 5570 5568 5567 5566 5563 5560 5554 5554 5555 5553 5551 5549 5547 5542 5536 5531 5527 5524 5523 5523
5575 5577 5578 5577 5577 5576 5577 5577 5577 5576 5576 5576 5575 5573 5573 5571 5570 5569 5567 5565 5563 5560 5558 5555 5553 5550 5549 5547 5545 5543 5540 5538 5537 5533 5528 5519 5515 5511